[[{"header":{"parameterUnit":"m.s-1","parameterCategory":1,"la1":30.2991,"la2":30.254,"lo1":-89.0895,"lo2":-89.0444,"dy":0.0017,"dx":0.0017,"nx":28,"ny":28,"refTime":"2025-11-29T09:00:00:Z","depth":0,"parameterNumber":2,"parameterNumberName":"U-component_of_WINDS"},"data":[0,0,0,0,0,0,0,0,0,0,0,0,0,0,0,0,0,0,0,0,0,0,0,0,0,0,0,0,0,0,0,0,0,0,0,0,0,0,0,0,0,0,0,0,0,0,0,0,0,0,0,0,0,0,0,0,0,0,-3.1631,-3.1634,0,-3.1918,-3.1921,-3.1924,-3.1984,-3.1982,-3.198,-3.1978,-3.2278,-3.2287,-3.2297,0,0,0,0,0,0,0,0,0,0,0,0,0,-3.1143,-3.1151,-3.1631,-3.1634,-3.1638,-3.1917,-3.1921,-3.1925,-3.1985,-3.1982,-3.1979,-3.1977,-3.2274,-3.2286,-3.2298,0,0,0,0,0,0,0,0,0,0,0,0,0,-3.1385,-3.1154,-3.163,-3.1701,-3.171,-3.1916,-3.1921,-3.1926,-3.1985,-3.1982,-3.1979,-3.1976,-3.2271,-3.2285,-3.23,-3.2457,0,0,-3.2346,-3.2352,0,0,0,0,0,0,0,0,-3.1371,-3.1403,-3.1687,-3.1697,-3.1707,-3.1912,-3.1859,-3.2105,-3.1986,-3.1881,-3.1978,-3.1974,-3.2159,-3.2183,-3.2244,-3.2471,-3.2484,-3.2347,-3.2356,-3.2363,-3.2367,0,0,0,0,0,0,0,-3.1354,-3.1391,-3.1744,-3.1691,-3.1704,-3.1721,-3.1752,-3.1906,-3.2035,-3.189,-3.1895,-3.1928,-3.2164,-3.2229,-3.2252,-3.2489,-3.2347,-3.236,-3.2369,-3.2375,-3.2864,-3.2868,0,0,0,0,0,0,-3.1324,-3.1376,-3.1735,-3.1753,-3.1527,-3.1733,-3.1767,-3.185,-3.2033,-3.2058,-3.193,-3.193,-3.2205,-3.2234,-3.2262,-3.2461,-3.2362,-3.2377,-3.2385,-3.286,-3.2865,-3.2869,0,0,0,0,0,0,-3.1313,-3.1355,-3.1724,-3.1566,-3.1614,-3.1745,-3.1837,-3.1857,-3.1922,-3.2064,-3.2088,-3.1973,-3.2204,-3.2241,-3.2409,-3.2472,-3.2383,-3.2397,-3.2855,-3.2861,-3.2867,-3.2857,0,0,0,0,0,0,-3.1299,-3.1351,-3.141,-3.1567,-3.1623,-3.1863,-3.184,-3.1865,-3.1947,-3.1949,-3.211,-3.2134,-3.2204,-3.2386,-3.2424,-3.2491,-3.2409,-3.285,-3.2858,-3.2865,-3.2852,-3.2862,-3.287,0,0,0,0,0,-3.1281,-3.1396,-3.1412,-3.1455,-3.1698,-3.1866,-3.1898,-3.1975,-3.1952,-3.2014,-3.2106,-3.2129,-3.2459,-3.2403,-3.2446,-3.2518,-3.2847,-3.2856,-3.2864,-3.2848,-3.286,-3.287,0,0,0,0,0,0,-3.1244,-3.1418,-3.1438,-3.1606,-3.1721,-3.1876,-3.1955,-3.1985,-3.211,-3.2106,-3.2199,-3.2235,-3.2397,-3.2475,-3.2409,-3.2682,-3.2652,-3.267,-3.2625,-3.2637,-3.2646,-3.2623,-3.2421,0,0,0,0,0,-3.1255,-3.1374,-3.1521,-3.1656,-3.1712,-3.1824,-3.19,-3.195,-3.2073,-3.2122,-3.2226,-3.2346,-3.2478,-3.2562,-3.2691,-3.2864,-3.2902,-3.2936,-3.2945,-3.2951,-3.2965,-3.3066,-3.3084,-3.2899,-3.2898,-3.2898,0,0,-3.128,-3.139,-3.1459,-3.1651,-3.1746,-3.187,-3.1864,-3.1995,-3.2089,-3.2143,-3.2307,-3.2388,-3.2529,-3.27,-3.2782,-3.277,-3.3025,-3.2963,-3.2967,-3.2978,-3.3077,-3.3095,-3.311,-3.2905,-3.2904,-3.2903,0,0,-3.1388,-3.1482,-3.1606,-3.1701,-3.1844,-3.1918,-3.1948,-3.21,-3.2155,-3.2321,-3.2365,-3.248,-3.2703,-3.2803,-3.2882,-3.3033,-3.306,-3.3073,-3.3118,-3.3215,-3.323,-3.3243,-3.3298,-3.3317,-3.3086,-3.3086,-3.3086,0,-3.1401,-3.1586,-3.1666,-3.1796,-3.188,-3.1934,-3.2062,-3.2151,-3.2329,-3.2388,-3.2373,-3.2656,-3.2755,-3.2952,-3.2989,-3.3052,-3.3091,-3.3053,-3.3221,-3.3235,-3.3249,-3.3303,-3.3323,-3.3087,-3.3087,-3.3087,-3.3087,0,-3.1596,-3.1725,-3.1809,-3.1978,-3.2073,-3.22,-3.2302,-3.2389,-3.2432,-3.2509,-3.268,-3.2801,-3.2955,-3.3007,-3.305,-3.3211,-3.32,-3.3202,-3.3173,-3.3266,-3.3318,-3.3339,-3.3088,-3.3088,-3.3088,-3.3087,0,0,-3.1686,-3.19,-3.1929,-3.2008,-3.2172,-3.2274,-3.2407,-3.2557,-3.263,-3.2753,-3.2868,-3.3058,-3.3062,-3.3153,-3.3208,-3.3294,-3.3407,-3.3286,-3.3291,-3.3305,-3.3595,-3.3592,-3.3614,-3.3427,-3.3431,-3.3434,-3.3583,0,-3.1814,-3.2049,-3.2126,-3.2323,-3.2445,-3.25,-3.2616,-3.2731,-3.2807,-3.2924,-3.301,-3.3143,-3.3138,-3.3193,-3.328,-3.3374,-3.3467,-3.3365,-3.3537,-3.3542,-3.3498,-3.3641,-3.3638,-3.3772,-3.3604,-3.3608,-3.361,0,-3.1994,-3.2118,-3.2326,-3.2477,-3.2531,-3.2633,-3.2779,-3.289,-3.3023,-3.3073,-3.3176,-3.3226,-3.337,-3.3334,-3.3536,-3.3465,-3.3541,-3.3599,-3.3606,-3.3624,-3.358,-3.3663,-3.3817,-3.3836,-3.3643,-3.364,-3.3638,0,-3.2039,-3.2259,-3.2412,-3.2478,-3.2658,-3.2729,-3.2808,-3.2937,-3.3024,-3.3153,-3.3211,-3.3355,-3.3434,-3.3547,-3.3636,-3.3601,-3.383,-3.3801,-3.3878,-3.3876,-3.3922,-3.3918,-3.409,-3.3972,-3.3971,-3.3971,-3.397,0,-3.2173,-3.2298,-3.2435,-3.2529,-3.2673,-3.2763,-3.2904,-3.2986,-3.3102,-3.3216,-3.3274,-3.338,-3.3491,-3.3613,-3.3685,-3.3842,-3.3878,-3.3924,-3.3941,-3.3918,-3.3912,-3.3968,-3.3961,-3.3976,-3.3975,-3.3974,-3.3973,0,-3.2246,-3.2343,-3.2514,-3.2671,-3.2713,-3.2812,-3.2948,-3.3044,-3.3124,-3.3268,-3.3307,-3.3434,-3.3581,-3.3681,-3.387,-3.3919,-3.4089,-3.4105,-3.4043,-3.4051,-3.4122,-3.4114,-3.4336,-3.437,-3.4229,-3.423,-3.4231,0,-3.2325,-3.2423,-3.259,-3.267,-3.2748,-3.2876,-3.2964,-3.3059,-3.3149,-3.331,-3.3387,-3.3538,-3.3663,-3.3896,-3.4007,-3.4153,-3.4173,-3.4241,-3.4195,-3.417,-3.4175,-3.4167,-3.4178,-3.4247,-3.4248,-3.4249,-3.4249,0,-3.2455,-3.2499,-3.2623,-3.2765,-3.2869,-3.2986,-3.3104,-3.3167,-3.3282,-3.3382,-3.3532,-3.3629,-3.3822,-3.3972,-3.4129,-3.4214,-3.4252,-3.4263,-3.4289,-3.4266,-3.4226,-3.4249,-3.4062,-3.4257,-3.4257,-3.4256,-3.4256,-3.4255,-3.2535,-3.2625,-3.2757,-3.2895,-3.2993,-3.3102,-3.32,-3.3293,-3.3419,-3.3582,-3.3632,-3.3788,-3.3924,-3.4138,-3.4226,-3.4352,-3.4346,-3.4383,-3.4392,-3.44,-3.44,-3.4206,-3.4381,-3.4381,-3.4381,-3.4381,-3.4381,0,-3.2668,-3.2756,-3.2882,-3.3044,-3.3154,-3.3179,-3.3312,-3.3402,-3.3539,-3.366,-3.3783,-3.3957,-3.4104,-3.4227,-3.438,-3.4457,-3.4479,-3.4494,-3.4489,-3.4509,-3.4396,-3.4358,-3.4474,-3.4474,-3.4474,-3.4474,-3.4474,-3.4474,-3.275,-3.2904,-3.2964,-3.317,-3.3259,-3.3411,-3.3484,-3.3587,-3.3685,-3.3876,-3.3998,-3.4077,-3.4201,-3.4363,-3.45,-3.4533,-3.4587,-3.4598,-3.4635,-3.4527,-3.4516,-3.4506,-3.4471,-3.4609,-3.4609,-3.4738,-3.4739,-3.474]},{"header":{"parameterUnit":"m.s-1","parameterCategory":1,"la1":30.2991,"la2":30.254,"lo1":-89.0895,"lo2":-89.0444,"dy":0.0017,"dx":0.0017,"nx":28,"ny":28,"refTime":"2025-11-29T09:00:00:Z","depth":0,"parameterNumber":3,"parameterNumberName":"V-component_of_WINDS"},"data":[0,0,0,0,0,0,0,0,0,0,0,0,0,0,0,0,0,0,0,0,0,0,0,0,0,0,0,0,0,0,0,0,0,0,0,0,0,0,0,0,0,0,0,0,0,0,0,0,0,0,0,0,0,0,0,0,0,0,3.1661,3.1659,0,3.1464,3.1462,3.146,3.1305,3.1303,3.1302,3.13,3.1085,3.1081,3.1077,0,0,0,0,0,0,0,0,0,0,0,0,0,3.189,3.1886,3.1661,3.1658,3.1656,3.1465,3.1462,3.1459,3.1305,3.1303,3.1301,3.1299,3.1087,3.1082,3.1077,0,0,0,0,0,0,0,0,0,0,0,0,0,3.1751,3.1885,3.1661,3.1556,3.1545,3.1465,3.1462,3.1458,3.1305,3.1303,3.1301,3.1299,3.1089,3.1082,3.1076,3.1081,0,0,3.1056,3.1053,0,0,0,0,0,0,0,0,3.1759,3.1743,3.1574,3.1563,3.1551,3.1407,3.1464,3.1331,3.1306,3.1396,3.13,3.1298,3.1193,3.1178,3.1146,3.107,3.1061,3.1055,3.1052,3.1049,3.1047,0,0,0,0,0,0,0,3.1769,3.175,3.1583,3.1572,3.1557,3.1515,3.1492,3.1438,3.1309,3.1388,3.1376,3.1356,3.1186,3.1152,3.1139,3.1058,3.1056,3.105,3.1046,3.1043,3.0972,3.0974,0,0,0,0,0,0,3.1797,3.1759,3.1589,3.1577,3.1652,3.1512,3.1488,3.1455,3.1309,3.1285,3.1358,3.1349,3.1165,3.1147,3.1131,3.1124,3.1049,3.1043,3.1039,3.097,3.0972,3.0975,0,0,0,0,0,0,3.1802,3.1783,3.1597,3.1665,3.1638,3.1511,3.1475,3.1452,3.1418,3.1287,3.1262,3.1348,3.1162,3.114,3.1094,3.1114,3.104,3.1034,3.0968,3.0971,3.0974,3.1111,0,0,0,0,0,0,3.181,3.1786,3.179,3.1666,3.1635,3.1568,3.1477,3.145,3.1409,3.1396,3.1271,3.1247,3.1159,3.1105,3.1088,3.1104,3.1029,3.0965,3.0969,3.0973,3.1104,3.1118,3.1131,0,0,0,0,0,3.1818,3.1834,3.1791,3.1771,3.1638,3.1569,3.1551,3.1452,3.1412,3.1411,3.1327,3.1251,3.1116,3.1102,3.1081,3.1095,3.0963,3.0968,3.0972,3.1098,3.1116,3.113,0,0,0,0,0,0,3.1958,3.1816,3.1766,3.1743,3.167,3.1543,3.154,3.1474,3.1407,3.1397,3.1274,3.1246,3.1213,3.1149,3.1136,3.109,3.1029,3.103,3.1132,3.1148,3.1161,3.1174,3.1023,0,0,0,0,0,3.1988,3.1948,3.1824,3.1816,3.1782,3.1669,3.1635,3.1566,3.1483,3.1449,3.1361,3.128,3.1218,3.118,3.1116,3.1096,3.1063,3.1095,3.1109,3.112,3.112,3.11,3.1112,3.0989,3.0989,3.0989,0,0,3.2045,3.1963,3.1944,3.1842,3.1777,3.1734,3.1643,3.1602,3.1567,3.1441,3.1393,3.1326,3.1226,3.1192,3.1172,3.1138,3.1148,3.1126,3.1136,3.113,3.1106,3.1118,3.1128,3.0992,3.0992,3.0991,0,0,3.2128,3.2064,3.2049,3.1986,3.1891,3.1815,3.1812,3.1695,3.1647,3.1597,3.1501,3.1456,3.1354,3.1286,3.1239,3.1297,3.1223,3.128,3.1347,3.1329,3.1338,3.1346,3.1362,3.137,3.1281,3.1282,3.1282,0,3.221,3.2147,3.2048,3.2013,3.1969,3.1858,3.1838,3.1781,3.1668,3.1638,3.1603,3.1472,3.1397,3.1344,3.1358,3.1325,3.1312,3.1291,3.1346,3.1353,3.1358,3.1372,3.1379,3.1289,3.1288,3.1287,3.1287,0,3.2251,3.2208,3.2206,3.2104,3.206,3.2033,3.1926,3.1892,3.1827,3.1754,3.1702,3.161,3.1524,3.1507,3.1442,3.1443,3.1425,3.1371,3.1306,3.1379,3.139,3.1395,3.1299,3.1297,3.1294,3.1293,0,0,3.2413,3.2259,3.2259,3.221,3.2097,3.2059,3.2026,3.1947,3.1918,3.1844,3.1809,3.1726,3.1674,3.162,3.1546,3.1532,3.1578,3.1477,3.1473,3.1495,3.1568,3.1607,3.1616,3.1531,3.1532,3.1532,3.1575,0,3.2474,3.2412,3.2322,3.2288,3.2244,3.2139,3.2109,3.2034,3.1965,3.1914,3.1835,3.1777,3.1716,3.1682,3.1663,3.1577,3.159,3.1573,3.1491,3.1489,3.1515,3.1622,3.1663,3.1708,3.1579,3.158,3.158,0,3.2536,3.2472,3.2435,3.2324,3.2302,3.2278,3.2196,3.2152,3.2063,3.2013,3.1954,3.1875,3.1829,3.1775,3.1707,3.1697,3.1658,3.1611,3.161,3.1594,3.1536,3.1605,3.1721,3.1726,3.1587,3.1586,3.1586,0,3.2653,3.2557,3.2522,3.2484,3.2355,3.2339,3.2284,3.2193,3.2151,3.2079,3.2049,3.1972,3.1928,3.1867,3.1767,3.1738,3.1708,3.1647,3.166,3.1663,3.1654,3.1655,3.1762,3.1638,3.1638,3.1638,3.1638,0,3.2728,3.2708,3.2572,3.255,3.2523,3.2419,3.2394,3.2328,3.2249,3.2208,3.2112,3.2074,3.1948,3.1894,3.1815,3.1768,3.175,3.1704,3.1682,3.171,3.1715,3.1679,3.1672,3.164,3.1639,3.1639,3.1639,0,3.2852,3.2761,3.2714,3.2598,3.2568,3.2553,3.2449,3.2421,3.2348,3.2298,3.2279,3.2162,3.2094,3.199,3.189,3.1837,3.1801,3.1768,3.1832,3.1818,3.1836,3.1834,3.1919,3.1922,3.1803,3.1804,3.1805,0,3.2903,3.2886,3.2768,3.2737,3.2686,3.2636,3.2593,3.2489,3.2448,3.2345,3.2328,3.2254,3.2189,3.2084,3.1986,3.1908,3.187,3.1905,3.1857,3.1884,3.1864,3.1865,3.186,3.1914,3.1916,3.1918,3.1919,0,3.3003,3.2959,3.2904,3.2833,3.2786,3.2723,3.2655,3.2634,3.2514,3.2471,3.2403,3.2353,3.2253,3.2178,3.2087,3.2023,3.1949,3.1936,3.1934,3.196,3.1996,3.1972,3.1858,3.1933,3.1932,3.1931,3.193,3.1929,3.3088,3.3067,3.2981,3.2922,3.2861,3.2801,3.2768,3.2693,3.2636,3.2549,3.249,3.2424,3.2332,3.2203,3.2144,3.2087,3.2055,3.2054,3.2052,3.2053,3.2061,3.201,3.207,3.207,3.2069,3.2069,3.2068,0,3.3179,3.312,3.3067,3.2977,3.293,3.2872,3.2793,3.2755,3.2701,3.2624,3.2563,3.2483,3.241,3.2308,3.2226,3.22,3.2164,3.2181,3.2179,3.2165,3.2096,3.2104,3.2212,3.2212,3.2212,3.2212,3.2212,3.2212,3.322,3.3181,3.3127,3.3055,3.2993,3.2932,3.2892,3.2833,3.2772,3.2688,3.2629,3.2566,3.2477,3.2388,3.2317,3.2288,3.226,3.2288,3.2248,3.2184,3.2171,3.2158,3.2164,3.2284,3.2284,3.2321,3.2321,3.2322]}]]